Regional Weather Roundup
Issued by NWS

Home | Current Version | Previous Version | Graphics & Text | Print | Product List | Glossary On
Versions: 1 2 3 4 5 6 7 8 9 10 11 12 13 14 15 16 17 18 19 20 21 22 23 24 25 26 27 28 29 30 31 32 33 34 35 36 37 38 39 40 41 42 43 44 45 46 47 48 49 50
000
ASUS45 KTFX 271010
RWRMT
MONTANA REGIONAL WEATHER ROUNDUP
NATIONAL WEATHER SERVICE GREAT FALLS MT
400 AM MDT TUE SEP 27 2016

NOTE: "FAIR" INDICATES FEW OR NO CLOUDS BELOW 12000 FEET WITH NO
SIGNIFICANT WEATHER AND/OR OBSTRUCTIONS TO VISIBILITY.

MTZ001>007-043-271100-
WEST OF THE DIVIDE

CITY           SKY/WX    TMP DP  RH WIND       PRES   REMARKS
KALISPELL      CLEAR     39  39 100 CALM      30.07S FOG
MISSOULA       CLEAR     44  43  96 W3        30.14S
BUTTE          CLEAR     38  34  85 SE5       30.25F
MULLAN PASS    CLEAR     58  38  47 SW6       30.19F
ANACONDA         N/A     50  36  57 S10       30.20S
DEER LODGE       N/A     45  37  76 CALM      30.21S
EUREKA           N/A     48  43  81 CALM      30.03S
HAMILTON         N/A     55  43  62 SE7       30.13F
LIBBY            N/A     45  43  93 SE3       30.03F
PLAINS           N/A     43  38  82 CALM      30.07S
RONAN            N/A     42  38  86 CALM      30.11S
$$

MTZ008-052>055-271100-
SOUTHWEST MONTANA

CITY           SKY/WX    TMP DP  RH WIND       PRES   REMARKS
BOZEMAN        CLEAR     44  38  79 CALM      30.19S
DILLON         CLEAR     50  37  61 S9        30.23S
W YELLOWSTONE    N/A     30  28  93 CALM      30.37F
ENNIS          CLEAR     50  36  57 S5        30.29S
THREE FORKS      N/A     39  20  47 CALM      30.15F
TWIN BRIDGES     N/A     45  35  67 SE5       30.19S
$$

MTZ009-010-012-014-046-048-049-054-271100-
EAST SLOPES AND CENTRAL MONTANA

CITY           SKY/WX    TMP DP  RH WIND       PRES   REMARKS
CUT BANK       CLEAR     57  41  55 W8        30.01F
GREAT FALLS    CLEAR     57  41  55 SW16      30.04F
MALMSTROM AFB  CLEAR     49  42  75 SW13      30.04F
HELENA         CLEAR     48  40  73 CALM      30.13F
AUGUSTA          N/A     54  38  54 SW7       30.07F
BOWMANS CRNR     N/A     55  40  58 S10       30.07F
CHOTEAU          N/A     57  39  51 S6        30.06S
CONRAD           N/A     52  44  74 S6        30.03F
FAIRFIELD        N/A     55  40  56 S5        30.04F
POWER            N/A     52  41  66 SW12      30.04S
RAYNESFORD       N/A     68  37  31 W9G20     30.06F
$$

MTZ011-013-016-021-045-047-050-051-271100-
NORTH CENTRAL MONTANA

CITY           SKY/WX    TMP DP  RH WIND       PRES   REMARKS
HAVRE          CLEAR     49  43  80 W5        29.96F
LEWISTOWN      CLEAR     48  39  71 E6        30.08F
N BAR RANCH      N/A     50  37  62 CALM      30.12S
CHINOOK          N/A     43  43 100 CALM      29.96F
DENTON           N/A     53  41  65 S14       30.01F
GEYSER           N/A     54  38  54 SW7       30.07F
GRASS RANGE      N/A     59  39  47 N3        30.03S
JUDITH GAP       N/A     56  38  51 S5G14     30.12F
ROY              N/A     60  42  50 MISG      30.02S
STANFORD         N/A     62  37  39 W12       30.08F
WINIFRED         N/A     62  40  44 MISG      30.03F
$$

MTZ017>020-022>027-061-062-271100-
NORTHEAST MONTANA

CITY           SKY/WX    TMP DP  RH WIND       PRES   REMARKS
GLASGOW        CLEAR     48  43  82 SE8       29.97F
JORDAN           N/A     41  38  89 CALM      30.00F
SIDNEY         CLEAR     41  38  89 CALM      30.02F
WOLF POINT     CLEAR     42  40  92 E6        30.00F
POPLAR           N/A     41  37  87 N3        30.01S
SCOBEY           N/A     39  31  73 CALM      29.98F
$$

MTZ028>42-056>058-271100-
SOUTHCENTRAL AND SOUTHEAST MONTANA

CITY           SKY/WX    TMP DP  RH WIND       PRES   REMARKS
BAKER          CLEAR     43  40  89 CALM      30.07F
BILLINGS       CLEAR     61  44  53 SW21      30.09F
LIVINGSTON     CLEAR     49  38  65 NW14      30.16F
MILES CITY     CLEAR     49  45  86 SE8       30.04F
BIG TIMBER     CLEAR     57  39  51 W14       30.16F
EKALAKA          N/A     49  41  74 SE3       30.06F
FORSYTH          N/A     50  46  87 CALM      30.04S
HARLOWTON        N/A     54  40  60 W9        30.12S
LAUREL           N/A     55  41  59 S6        30.08F
ROUNDUP          N/A     54  44  68 S9        29.99S
$$

REGIONAL REPORTS...DAKOTAS

CITY           SKY/WX    TMP DP  RH WIND       PRES   REMARKS
WILLISTON      CLEAR     39  36  89 CALM      30.02F
MINOT          CLEAR     43  37  79 SW9       30.01S
DICKINSON      CLEAR     44  38  79 W3        30.02F
CROSBY           N/A     39  39 100 S7        30.03F
WATFORD CITY     N/A     39  37  93 CALM      30.03S
BISMARCK       CLEAR     38  35  89 CALM      30.03S
GRAND FORKS    CLEAR     41  36  82 W8        29.91S
FARGO          CLEAR     39  33  79 W6        29.93R
BUFFALO SD       N/A     53  43  68 W3        30.02F
RAPID CITY     CLEAR     45  39  79 CALM      30.12F
$$

REGIONAL REPORTS...WYOMING/IDAHO/WASHINGTON

CITY           SKY/WX    TMP DP  RH WIND       PRES   REMARKS
GILLETTE       CLEAR     54  43  66 SW10      30.14F
SHERIDAN       CLEAR     46  37  71 S5        30.12F
BUFFALO WY     CLEAR     55  30  38 W10       30.18F
CODY           CLEAR     46  45  93 CALM      30.22S
YELLOWSTONE LA   N/A     30  30 100 NW3       30.43F
IDAHO FALLS    CLOUDY    42  39  89 N6        30.25F
SALMON         CLEAR     43  39  87 CALM      30.23S
BOISE          CLEAR     59  42  53 S7        30.10S
SPOKANE        CLEAR     55  39  54 S3        30.01S
$$

REGIONAL REPORTS...ALBERTA

CITY           SKY/WX    TMP DP  RH WIND       PRES   REMARKS
EDMONTON       CLEAR     46  37  71 SE2       29.72F
CALGARY        PTCLDY    57  39  51 S3        29.86F
LETHBRIDGE     CLEAR     52  43  71 W12       29.92F
MEDICINE HAT   CLEAR     50  43  76 SW7       29.86F
MILK RIVER       N/A     45  39  81 W1          N/A
ONEFOUR          N/A     46  41  81 NE7         N/A
$$

REGIONAL REPORTS...SASKATCHEWAN

CITY           SKY/WX    TMP DP  RH WIND       PRES   REMARKS
SWIFT CURRENT  CLEAR     50  45  81 S15       29.90F
REGINA         CLEAR     39  36  87 SE10      29.98F
SASKATOON      CLEAR     45  39  81 S6        29.92F
CYPRESS HILLS    N/A     52  37  58 W7          N/A
VAL MARIE        N/A     37  36  93 SE5         N/A
ROCKGLEN         N/A     48  41  76 S9          N/A
$$



USA.gov is the U.S. government's official web portal to all federal, state and local government web resources and services.